Regional Weather Roundup
Issued by NWS

Home | Current Version | Previous Version | Text Only | Print | Product List | Glossary Off
Versions: 1 2 3 4 5 6 7 8 9 10 11 12 13 14 15 16 17 18 19 20 21 22 23 24 25 26 27 28 29 30 31 32 33 34 35 36 37 38 39 40 41 42 43 44 45 46 47 48 49 50

000
ASUS43 KMKX 291311
RWRWI

WISCONSIN REGIONAL WEATHER ROUNDUP
NATIONAL WEATHER SERVICE MILWAUKEE/SULLIVAN WI
800 AM CDT FRI APR 29 2016

NOTE: "FAIR" INDICATES FEW OR NO CLOUDS BELOW 12,000 FEET WITH NO
SIGNIFICANT WEATHER AND/OR OBSTRUCTIONS TO VISIBILITY.

WIZ001-002-006>008-014>016-023>028-291400-
NORTHWEST WISCONSIN

CITY           SKY/WX    TMP DP  RH WIND       PRES   REMARKS
SUPERIOR ARPT  SUNNY     37  32  81 CALM      30.20S
ASHLAND        SUNNY     38  33  82 CALM      30.19R
HAYWARD        SUNNY     35  29  78 N6        30.16S WCI  30
SIREN          CLOUDY    37  29  74 NE6       30.18R WCI  32
CUMBERLAND     SUNNY     36  30  80 N3        30.16R
RICE LAKE      SUNNY     37  29  75 N5        30.18R WCI  33
CHETEK         SUNNY     38  30  73 N5        30.16S WCI  35
LADYSMITH      SUNNY     41  34  77 N5        30.16S
EAU CLAIRE     MOSUNNY   43  39  86 N7        30.15R
MENOMONIE      CLOUDY    42  42 100 W6        30.17R
NEW RICHMOND   MOSUNNY   38  38 100 NW3       30.18R
OSCEOLA        MOSUNNY   38  38 100 W3        30.21R
$$

WIZ003>005-009-010-017-018-291400-
NORTH CENTRAL WISCONSIN

CITY           SKY/WX    TMP DP  RH WIND       PRES   REMARKS
MANITOWISH WTR CLOUDY    38  35  88 CALM      30.14S
ARBOR VITAE    CLOUDY    42  37  85 N7        30.13F
WOODRUFF       CLOUDY    42  37  85 N7        30.13F
RHINELANDER    CLOUDY    42  36  79 VRB5      30.14R
EAGLE RIVER    MOSUNNY   40  32  74 N7        30.14S
LAND O LAKES   CLOUDY    40  34  77 N7        30.15S
PHILLIPS       CLOUDY    38  35  87 CALM      30.14S
TOMAHAWK       CLOUDY    38  37  94 CALM      30.15R
MEDFORD        CLOUDY    38  38  98 CALM      30.13S
MERRILL        CLOUDY    40  38  95 NE3       30.15S
$$

WIZ029-030-035-036-043>047-291400-
CENTRAL WISCONSIN

CITY           SKY/WX    TMP DP  RH WIND       PRES   REMARKS
WAUSAU         CLOUDY    42  36  79 N3        30.13R
MOSINEE        CLOUDY    37  37 100 NE3       30.15R
MARSHFIELD     CLOUDY    41  36  82 NE6       30.13R
STEVENS POINT  CLOUDY    37  36  93 N5        30.15R WCI  34
WAUPACA        CLOUDY    42  36  79 N6        30.14R
WAUTOMA        NOT AVBL
WISC RAPIDS    CLOUDY    41  35  79 NE8       30.15R
CAMP DOUGLAS   PTSUNNY   39  39 100 NW7       30.13S WCI  34
$$

WIZ011>013-019>022-031-037>040-048>050-291400-
NORTHEAST WISCONSIN

CITY           SKY/WX    TMP DP  RH WIND       PRES   REMARKS
ANTIGO         CLOUDY    38  36  92 N10       30.14R WCI  32
SHAWANO        CLOUDY    42  36  79 N7        30.15R
OCONTO         CLOUDY    41  32  69 NE6       30.14R
STURGEON BAY   CLOUDY    41  32  70 NE5       30.16R
GREEN BAY      CLOUDY    43  34  70 N9        30.14R
MANITOWOC      CLOUDY    39  36  89 CALM      30.13R
APPLETON       CLOUDY    39  32  75 N8        30.11R WCI  34
CLINTONVILLE   CLOUDY    41  34  75 N6        30.14R
OSHKOSH        CLOUDY    42  34  73 N10       30.12R
$$

WIZ032>034-041-042-053>061-291400-
SOUTHWEST WISCONSIN

CITY           SKY/WX    TMP DP  RH WIND       PRES   REMARKS
LA CROSSE      CLOUDY    42  37  82 N8        30.14F
SPARTA         CLOUDY    40  38  95 N5        30.14F
VIROQUA        CLOUDY    38  38  97 N7        30.12S WCI  33
BOSCOBEL       CLOUDY    42  38  85 NE6       30.12F
PRAIRIE DU CHI CLOUDY    41  36  80 NE7       30.12F
PLATTEVILLE    CLOUDY    41  40  95 N8        30.11S
$$

WIZ056-057-062-063-064-067-068-291400-
SOUTH CENTRAL WISCONSIN

CITY           SKY/WX    TMP DP  RH WIND       PRES   REMARKS
REEDSBURG      CLOUDY    39  38  95 N7        30.12F WCI  34
BARABOO/DELLS  CLOUDY    39  37  92 N8        30.12S WCI  33
LONE ROCK      CLOUDY    41  37  86 NW3       30.14S
MINERAL POINT  CLOUDY    41  39  93 N5        30.10F
MADISON        PTSUNNY   40  37  89 N5        30.12R
MIDDLETON      CLOUDY    41  38  89 N7        30.12R
WATERTOWN      CLOUDY    40  40  99 N7        30.11R
MONROE         CLOUDY    41  37  87 N7        30.09F
JANESVILLE     PTSUNNY   43  41  93 N6        30.10R
$$

WIZ051-052-058>065-066-070>072-291400-
SOUTHEAST WISCONSIN

CITY           SKY/WX    TMP DP  RH WIND       PRES   REMARKS
MILWAUKEE      CLOUDY    41  37  86 N9        30.10R
WAUKESHA       CLOUDY    39  37  93 N6        30.11R WCI  35
MILWAUKEE/TIMM CLOUDY    39  36  87 N5        30.12R
RACINE         CLOUDY    41  38  89 N7        30.11R
BURLINGTON     CLOUDY    40  38  94 N7        30.09S WCI  35
KENOSHA        CLOUDY    42  38  85 N8        30.09S
FOND DU LAC    CLOUDY    42  36  79 NE10      30.12R
SHEBOYGAN      CLOUDY    39  35  86 N5        30.12R
WEST BEND      CLOUDY    37  36  93 N3        30.11R
JUNEAU         CLOUDY    40  37  90 N7        30.12R WCI  35
$$

LSZ147-162-291400-
LAKE SUPERIOR

STATION/POSITION TIME  TEMP    WIND        PRES    WAVE
                       AIR SEA DIR/SP/G            HT/PER
                 (UTC) (F)     (DEG/KT/KT) (MB)    (FT/S)
W MID LAKE BUOY  1250   38 36   30/ 10/ 12 1022.9R   1
DEVILS ISLAND    1300   38      30/  8/  9 1023.3R
SAXON HARBOR     1200   32     190/  2/  3 1021.3S
$$

LMZ867-665-643>646-291400-
LAKE MICHIGAN

STATION/POSITION TIME  TEMP    WIND        PRES    WAVE
                       AIR SEA DIR/SP/G            HT/PER
                 (UTC) (F)     (DEG/KT/KT) (MB)    (FT/S)
CHAMBERS ISLAND  1200   40      10/ 11/ 13 1020.3R
N MID LAKE BUOY  1250   39 38   60/  4/  6 1020.9R   1
NORTHPORT PIER   1200   41      30/  8/ 11 1020.0R
ALGOMA LAKESHORE 1245           50/ 11/ 13   N/A
KEWAUNEE LAKESHO 1200   41     360/  3/  6 1019.2R
SHEBOYGAN LAKESH 1300   39      10/  9/ 11 1020.9R
PORT WASHINGTON  1200   40      10/  3/  4 1020.0R
S MID LAKE BUOY  1250   40 40   20/  8/ 10 1018.9R   1/ 3
KENOSHA   LAKESH 1300   41     360/  8/ 10 1019.0S
$$

TC  - TEMPERATURE IN CELSIUS
VSB - VISIBILITY IN STATUTE MILES
WCI - WIND CHILL INDEX
HX  - HEAT INDEX





USA.gov is the U.S. government's official web portal to all federal, state and local government web resources and services.